Isola Bianca — ICLD — position and weather

sailwx.info

Track history (hours):
 
Tides and Currents Weather Stations Pressure Air Temp Water Temp Dewpoint Dewpoint Depression Visibility Wind Speed Wind Dir Waves Ship Positions

Isola Bianca

Last reported at 2014-Oct-27 23:14 UTC. Time now 2014-Nov-27 06:48 UTC.
Position N 48°22' W 006°12'.
Warning: this ship's position is 30 days out of date.

Length 183 m; draft 12.6 m.

Type: Tanker. MMSI: 247245200.

Date/timePositionNaut miles runAvg speedWind from/ knotsBaromVisibWave heightAir tempDewpointWater temp
2014-Oct-27 23:14N 48°22' W 006°12'13311.2
2014-Oct-27 11:22N 49°49' W 003°38'1011.8
2014-Oct-27 10:30N 49°55' W 003°25'1010.7
2014-Oct-27 09:33N 49°58' W 003°10'1010.1
2014-Oct-27 08:31N 50°01' W 002°55'1010.1
2014-Oct-27 07:33N 50°04' W 002°40'1110.9
2014-Oct-27 06:33N 50°07' W 002°24'4613.9
2014-Oct-27 03:17N 50°18' W 001°15'1115.0
2014-Oct-27 02:31N 50°21' W 000°58'1313.6
2014-Oct-27 01:32N 50°25' W 000°37'1412.3
2014-Oct-27 00:25N 50°28' W 000°16'1011.1
2014-Oct-26 23:28N 50°31' W 000°00'910.1
2014-Oct-26 22:34N 50°34' E 000°13'10 9.6
2014-Oct-26 21:33N 50°36' E 000°28'1110.7
2014-Oct-26 20:34N 50°41' E 000°43'1212.4
2014-Oct-26 19:34N 50°48' E 000°59'1313.1
2014-Oct-26 18:33N 50°57' E 001°14'1312.5
2014-Oct-26 17:33N 51°05' E 001°29'1110.8
2014-Oct-26 16:33N 51°12' E 001°43'10 9.7
2014-Oct-26 15:33N 51°20' E 001°50'9 9.4
2014-Oct-26 14:33N 51°29' E 001°57'10 9.7
2014-Oct-26 13:33N 51°36' E 002°07'1110.7
2014-Oct-26 12:33N 51°44' E 002°19'8011.5
2014-Oct-26 05:34N 52°31' E 004°05'1111.1
2014-Oct-26 04:33N 52°29' E 004°23'8 7.7
2014-Oct-26 03:34N 52°28' E 004°35'2 1.6
2014-Oct-26 02:34N 52°28' E 004°38'6 6.1
2014-Oct-26 01:33N 52°25' E 004°46'0 0.4
2014-Oct-26 00:30N 52°25' E 004°47'0 0.0
2014-Oct-25 23:33N 52°25' E 004°47'0 0.0
2014-Oct-25 22:33N 52°25' E 004°47'0 0.0
2014-Oct-25 21:33N 52°25' E 004°47'0 0.0
2014-Oct-25 20:33N 52°25' E 004°47'0 0.0
2014-Oct-25 19:33N 52°25' E 004°47'0 0.0
2014-Oct-25 18:33N 52°25' E 004°47'0 0.0
2014-Oct-25 17:30N 52°25' E 004°47'0 0.0
2014-Oct-25 16:33N 52°25' E 004°47'0 0.0
2014-Oct-25 15:30N 52°25' E 004°47'0 0.0
2014-Oct-25 14:33N 52°25' E 004°47'0 0.0
2014-Oct-25 13:30N 52°25' E 004°47'0 0.0
2014-Oct-25 12:33N 52°25' E 004°47'0 0.0
2014-Oct-25 11:30N 52°25' E 004°47'0 0.0
2014-Oct-25 10:33N 52°25' E 004°47'0 0.0
2014-Oct-25 09:33N 52°25' E 004°47'0 0.0
2014-Oct-25 08:33N 52°25' E 004°47'0 0.0
2014-Oct-25 07:30N 52°25' E 004°47'0 0.0
2014-Oct-25 06:30N 52°25' E 004°47'0 0.0
2014-Oct-25 05:33N 52°25' E 004°47'0 0.0
2014-Oct-25 04:30N 52°25' E 004°47'0 0.0
2014-Oct-25 03:30N 52°25' E 004°47'0 0.0
2014-Oct-25 02:30N 52°25' E 004°47'0 0.0
2014-Oct-25 01:33N 52°25' E 004°47'0 0.0
2014-Oct-25 00:33N 52°25' E 004°47'0 0.0
2014-Oct-24 23:33N 52°25' E 004°47'0 0.0
2014-Oct-24 22:30N 52°25' E 004°47'0 0.0
2014-Oct-24 21:33N 52°25' E 004°47'0 0.0
2014-Oct-24 20:33N 52°25' E 004°47'0 0.0
2014-Oct-24 19:33N 52°25' E 004°47'0 0.0
2014-Oct-24 18:30N 52°25' E 004°47'0 0.0
2014-Oct-24 17:33N 52°25' E 004°47'0 0.0
2014-Oct-24 16:33N 52°25' E 004°47'0 0.0
2014-Oct-24 15:33N 52°25' E 004°47'0 0.0
2014-Oct-24 14:30N 52°25' E 004°47'0 0.0
2014-Oct-24 13:33N 52°25' E 004°47'0 0.0
2014-Oct-24 12:33N 52°25' E 004°47'0 0.0
2014-Oct-24 11:33N 52°25' E 004°47'0 0.0
2014-Oct-24 10:33N 52°25' E 004°47'0 0.0
2014-Oct-24 09:33N 52°25' E 004°47'0 0.0
2014-Oct-24 08:33N 52°25' E 004°47'0 0.0
2014-Oct-24 07:30N 52°25' E 004°47'0 0.0
2014-Oct-24 06:33N 52°25' E 004°47'0 0.0
2014-Oct-24 05:33N 52°25' E 004°47'0 0.0
2014-Oct-24 04:33N 52°25' E 004°47'0 0.0
2014-Oct-24 03:33N 52°25' E 004°47'0 0.0
2014-Oct-24 02:33N 52°25' E 004°47'0 0.0
2014-Oct-24 01:33N 52°25' E 004°47'0 0.0
2014-Oct-24 00:33N 52°25' E 004°47'0 0.0
2014-Oct-23 23:33N 52°25' E 004°47'0 0.0
2014-Oct-23 22:33N 52°25' E 004°47'0 0.0
2014-Oct-23 21:33N 52°25' E 004°47'0 0.0
2014-Oct-23 20:33N 52°25' E 004°47'0 0.0
2014-Oct-23 19:33N 52°25' E 004°47'0 0.0
2014-Oct-23 18:33N 52°25' E 004°47'0 0.0
2014-Oct-23 17:30N 52°25' E 004°47'0 0.0
2014-Oct-23 16:33N 52°25' E 004°47'0 0.0
2014-Oct-23 15:33N 52°25' E 004°47'0 0.0
2014-Oct-23 14:33N 52°25' E 004°47'0 0.0
2014-Oct-23 13:33N 52°25' E 004°47'0 0.0
2014-Oct-23 12:33N 52°25' E 004°47'0 0.0
2014-Oct-23 11:33N 52°25' E 004°47'0 0.0
2014-Oct-23 10:33N 52°25' E 004°47'0 0.0
2014-Oct-23 09:33N 52°25' E 004°47'0 0.0
2014-Oct-23 08:30N 52°25' E 004°47'3 2.8
2014-Oct-23 07:34N 52°26' E 004°43'5 4.6
2014-Oct-23 06:34N 52°28' E 004°36'3 2.7
2014-Oct-23 05:34N 52°28' E 004°32'9 8.7
2014-Oct-23 04:33N 52°29' E 004°18'10 9.5
2014-Oct-23 03:33N 52°27' E 004°02'0 0.3
2014-Oct-23 02:26N 52°27' E 004°03'0 0.0
2014-Oct-23 01:32N 52°27' E 004°03'0 0.1
2014-Oct-23 00:32N 52°27' E 004°03'0 0.1
2014-Oct-22 23:32N 52°26' E 004°03'0 0.0
2014-Oct-22 22:32N 52°26' E 004°03'0 0.1
2014-Oct-22 21:32N 52°26' E 004°03'0 0.0
2014-Oct-22 20:32N 52°26' E 004°03'0 0.0
2014-Oct-22 19:32N 52°26' E 004°03'0 0.0
2014-Oct-22 18:32N 52°26' E 004°03'0 0.0
2014-Oct-22 17:32N 52°26' E 004°03'2 2.3
2014-Oct-22 16:33N 52°28' E 003°60'10 9.8
2014-Oct-22 15:33N 52°25' E 003°44'5 0.5
2014-Oct-22 05:20N 52°29' E 003°39'3 3.6
2014-Oct-22 04:22N 52°31' E 003°43'2 0.5
2014-Oct-21 23:11N 52°31' E 003°39'2 2.8
2014-Oct-21 22:33N 52°31' E 003°42'2 1.7
2014-Oct-21 21:33N 52°30' E 003°45'3 2.7
2014-Oct-21 20:33N 52°30' E 003°49'3 3.3
2014-Oct-21 19:33N 52°31' E 003°54'124124.2
2014-Oct-21 18:33N 52°31' E 000°30'133132.7
2014-Oct-21 17:33N 52°31' E 004°08'4 3.9
2014-Oct-21 16:33N 52°32' E 004°14'1 0.5
2014-Oct-21 15:29N 52°32' E 004°14'0 0.1
2014-Oct-21 14:32N 52°32' E 004°13'0 0.0
2014-Oct-21 13:32N 52°32' E 004°13'0 0.0
2014-Oct-21 12:32N 52°32' E 004°13'0 0.0
2014-Oct-21 11:32N 52°32' E 004°13'0 0.1
2014-Oct-21 10:29N 52°32' E 004°13'0 0.1
2014-Oct-21 09:32N 52°32' E 004°13'0 0.0
2014-Oct-21 08:32N 52°32' E 004°13'0 0.1
2014-Oct-21 07:29N 52°32' E 004°13'0 0.0
2014-Oct-21 06:32N 52°32' E 004°13'0 0.1
2014-Oct-21 05:32N 52°32' E 004°13'0 0.0
2014-Oct-21 04:32N 52°32' E 004°13'0 0.0
2014-Oct-21 03:32N 52°32' E 004°13'0 0.0
2014-Oct-21 02:29N 52°32' E 004°13'0 0.0
2014-Oct-21 01:32N 52°32' E 004°13'0 0.0
2014-Oct-21 00:26N 52°32' E 004°13'0 0.0
2014-Oct-20 23:32N 52°32' E 004°13'0 0.1
2014-Oct-20 22:32N 52°32' E 004°13'0 0.0
2014-Oct-20 21:32N 52°32' E 004°13'0 0.0
2014-Oct-20 20:32N 52°32' E 004°13'0 0.0
2014-Oct-20 19:26N 52°32' E 004°13'0 0.0
2014-Oct-20 18:29N 52°32' E 004°13'2 2.1
2014-Oct-20 17:33N 52°30' E 004°13'1111.0
2014-Oct-20 16:33N 52°27' E 003°56'1211.9
2014-Oct-20 15:33N 52°15' E 003°53'1212.3
2014-Oct-20 14:33N 52°03' E 003°55'9 9.0
2014-Oct-20 13:33N 51°58' E 004°08'2 2.3
2014-Oct-20 12:32N 51°56' E 004°11'0 0.0
2014-Oct-20 11:32N 51°56' E 004°11'0 0.0
2014-Oct-20 10:32N 51°56' E 004°11'0 0.0
2014-Oct-20 09:29N 51°56' E 004°11'0 0.0
2014-Oct-20 08:32N 51°56' E 004°11'0 0.0
2014-Oct-20 07:29N 51°56' E 004°11'0 0.0
2014-Oct-20 06:32N 51°56' E 004°11'0 0.0
2014-Oct-20 05:32N 51°56' E 004°11'0 0.0
2014-Oct-20 04:32N 51°56' E 004°11'0 0.0
2014-Oct-20 03:32N 51°56' E 004°11'0 0.0
2014-Oct-20 02:32N 51°56' E 004°11'0 0.0
2014-Oct-20 01:32N 51°56' E 004°11'0 0.0
2014-Oct-20 00:32N 51°56' E 004°11'0 0.0
2014-Oct-19 23:32N 51°56' E 004°11'0 0.0
2014-Oct-19 22:32N 51°56' E 004°11'0 0.0
2014-Oct-19 21:29N 51°56' E 004°11'0 0.0
2014-Oct-19 20:32N 51°56' E 004°11'0 0.0
2014-Oct-19 19:32N 51°56' E 004°11'0 0.0
2014-Oct-19 18:32N 51°56' E 004°11'0 0.0
2014-Oct-19 17:32N 51°56' E 004°11'0 0.0
2014-Oct-19 16:32N 51°56' E 004°11'0 0.0
2014-Oct-19 15:32N 51°56' E 004°11'0 0.0
2014-Oct-19 14:32N 51°56' E 004°11'0 0.0
2014-Oct-19 13:32N 51°56' E 004°11'0 0.0
2014-Oct-19 12:32N 51°56' E 004°11'0 0.0
2014-Oct-19 11:32N 51°56' E 004°11'0 0.0
2014-Oct-19 10:32N 51°56' E 004°11'0 0.0
2014-Oct-19 09:32N 51°56' E 004°11'0 0.0
2014-Oct-19 08:32N 51°56' E 004°11'0 0.0
2014-Oct-19 07:32N 51°56' E 004°11'0 0.0
2014-Oct-19 06:32N 51°56' E 004°11'0 0.0
2014-Oct-19 05:29N 51°56' E 004°11'0 0.0
2014-Oct-19 04:32N 51°56' E 004°11'1 0.7
2014-Oct-19 03:33N 51°57' E 004°10'7 7.4
2014-Oct-19 02:33N 52°01' E 003°60'9 9.5
2014-Oct-19 01:33N 51°56' E 004°13'6 6.1
2014-Oct-19 00:33N 51°54' E 004°22'0 0.0
2014-Oct-18 23:29N 51°54' E 004°22'0 0.0
2014-Oct-18 22:32N 51°54' E 004°22'0 0.0
2014-Oct-18 21:29N 51°54' E 004°22'0 0.0
2014-Oct-18 20:32N 51°54' E 004°22'0 0.0
2014-Oct-18 19:23N 51°54' E 004°22'0 0.0
2014-Oct-18 17:32N 51°54' E 004°22'0 0.0
2014-Oct-18 16:32N 51°54' E 004°22'0 0.0
2014-Oct-18 15:32N 51°54' E 004°22'0 0.0
2014-Oct-18 14:32N 51°54' E 004°22'0 0.0
2014-Oct-18 13:32N 51°54' E 004°22'0 0.0
2014-Oct-18 12:32N 51°54' E 004°22'0 0.0
2014-Oct-18 11:32N 51°54' E 004°22'0 0.0
2014-Oct-18 10:32N 51°54' E 004°22'0 0.0
2014-Oct-18 09:29N 51°54' E 004°22'0 0.0
2014-Oct-18 08:29N 51°54' E 004°22'0 0.0
2014-Oct-18 07:32N 51°54' E 004°22'0 0.0
2014-Oct-18 06:32N 51°54' E 004°22'0 0.0
2014-Oct-18 05:17N 51°54' E 004°22'0 0.0
2014-Oct-18 04:29N 51°54' E 004°22'0 0.0
2014-Oct-18 03:32N 51°54' E 004°22'0 0.0
2014-Oct-18 02:29N 51°54' E 004°22'0 0.0
2014-Oct-18 01:32N 51°54' E 004°22'0 0.0
2014-Oct-18 00:32N 51°54' E 004°22'0 0.0
2014-Oct-17 23:32N 51°54' E 004°22'  
Track history (hours):
 
Tides and Currents Weather Stations Pressure Air Temp Water Temp Dewpoint Dewpoint Depression Visibility Wind Speed Wind Dir Waves Ship Positions

Isola Bianca

Last reported at 2014-Oct-27 23:14 UTC. Time now 2014-Nov-27 06:48 UTC.
Position N 48°22' W 006°12'.
Warning: this ship's position is 30 days out of date.

Length 183 m; draft 12.6 m.

Type: Tanker. MMSI: 247245200.

Date/timePositionNaut miles runAvg speedWind from/ knotsBaromVisibWave heightAir tempDewpointWater temp
2014-Oct-27 23:14N 48°22' W 006°12'13311.2
2014-Oct-27 11:22N 49°49' W 003°38'1011.8
2014-Oct-27 10:30N 49°55' W 003°25'1010.7
2014-Oct-27 09:33N 49°58' W 003°10'1010.1
2014-Oct-27 08:31N 50°01' W 002°55'1010.1
2014-Oct-27 07:33N 50°04' W 002°40'1110.9
2014-Oct-27 06:33N 50°07' W 002°24'4613.9
2014-Oct-27 03:17N 50°18' W 001°15'1115.0
2014-Oct-27 02:31N 50°21' W 000°58'1313.6
2014-Oct-27 01:32N 50°25' W 000°37'1412.3
2014-Oct-27 00:25N 50°28' W 000°16'1011.1
2014-Oct-26 23:28N 50°31' W 000°00'910.1
2014-Oct-26 22:34N 50°34' E 000°13'10 9.6
2014-Oct-26 21:33N 50°36' E 000°28'1110.7
2014-Oct-26 20:34N 50°41' E 000°43'1212.4
2014-Oct-26 19:34N 50°48' E 000°59'1313.1
2014-Oct-26 18:33N 50°57' E 001°14'1312.5
2014-Oct-26 17:33N 51°05' E 001°29'1110.8
2014-Oct-26 16:33N 51°12' E 001°43'10 9.7
2014-Oct-26 15:33N 51°20' E 001°50'9 9.4
2014-Oct-26 14:33N 51°29' E 001°57'10 9.7
2014-Oct-26 13:33N 51°36' E 002°07'1110.7
2014-Oct-26 12:33N 51°44' E 002°19'8011.5
2014-Oct-26 05:34N 52°31' E 004°05'1111.1
2014-Oct-26 04:33N 52°29' E 004°23'8 7.7
2014-Oct-26 03:34N 52°28' E 004°35'2 1.6
2014-Oct-26 02:34N 52°28' E 004°38'6 6.1
2014-Oct-26 01:33N 52°25' E 004°46'0 0.4
2014-Oct-26 00:30N 52°25' E 004°47'0 0.0
2014-Oct-25 23:33N 52°25' E 004°47'0 0.0
2014-Oct-25 22:33N 52°25' E 004°47'0 0.0
2014-Oct-25 21:33N 52°25' E 004°47'0 0.0
2014-Oct-25 20:33N 52°25' E 004°47'0 0.0
2014-Oct-25 19:33N 52°25' E 004°47'0 0.0
2014-Oct-25 18:33N 52°25' E 004°47'0 0.0
2014-Oct-25 17:30N 52°25' E 004°47'0 0.0
2014-Oct-25 16:33N 52°25' E 004°47'0 0.0
2014-Oct-25 15:30N 52°25' E 004°47'0 0.0
2014-Oct-25 14:33N 52°25' E 004°47'0 0.0
2014-Oct-25 13:30N 52°25' E 004°47'0 0.0
2014-Oct-25 12:33N 52°25' E 004°47'0 0.0
2014-Oct-25 11:30N 52°25' E 004°47'0 0.0
2014-Oct-25 10:33N 52°25' E 004°47'0 0.0
2014-Oct-25 09:33N 52°25' E 004°47'0 0.0
2014-Oct-25 08:33N 52°25' E 004°47'0 0.0
2014-Oct-25 07:30N 52°25' E 004°47'0 0.0
2014-Oct-25 06:30N 52°25' E 004°47'0 0.0
2014-Oct-25 05:33N 52°25' E 004°47'0 0.0
2014-Oct-25 04:30N 52°25' E 004°47'0 0.0
2014-Oct-25 03:30N 52°25' E 004°47'0 0.0
2014-Oct-25 02:30N 52°25' E 004°47'0 0.0
2014-Oct-25 01:33N 52°25' E 004°47'0 0.0
2014-Oct-25 00:33N 52°25' E 004°47'0 0.0
2014-Oct-24 23:33N 52°25' E 004°47'0 0.0
2014-Oct-24 22:30N 52°25' E 004°47'0 0.0
2014-Oct-24 21:33N 52°25' E 004°47'0 0.0
2014-Oct-24 20:33N 52°25' E 004°47'0 0.0
2014-Oct-24 19:33N 52°25' E 004°47'0 0.0
2014-Oct-24 18:30N 52°25' E 004°47'0 0.0
2014-Oct-24 17:33N 52°25' E 004°47'0 0.0
2014-Oct-24 16:33N 52°25' E 004°47'0 0.0
2014-Oct-24 15:33N 52°25' E 004°47'0 0.0
2014-Oct-24 14:30N 52°25' E 004°47'0 0.0
2014-Oct-24 13:33N 52°25' E 004°47'0 0.0
2014-Oct-24 12:33N 52°25' E 004°47'0 0.0
2014-Oct-24 11:33N 52°25' E 004°47'0 0.0
2014-Oct-24 10:33N 52°25' E 004°47'0 0.0
2014-Oct-24 09:33N 52°25' E 004°47'0 0.0
2014-Oct-24 08:33N 52°25' E 004°47'0 0.0
2014-Oct-24 07:30N 52°25' E 004°47'0 0.0
2014-Oct-24 06:33N 52°25' E 004°47'0 0.0
2014-Oct-24 05:33N 52°25' E 004°47'0 0.0
2014-Oct-24 04:33N 52°25' E 004°47'0 0.0
2014-Oct-24 03:33N 52°25' E 004°47'0 0.0
2014-Oct-24 02:33N 52°25' E 004°47'0 0.0
2014-Oct-24 01:33N 52°25' E 004°47'0 0.0
2014-Oct-24 00:33N 52°25' E 004°47'0 0.0
2014-Oct-23 23:33N 52°25' E 004°47'0 0.0
2014-Oct-23 22:33N 52°25' E 004°47'0 0.0
2014-Oct-23 21:33N 52°25' E 004°47'0 0.0
2014-Oct-23 20:33N 52°25' E 004°47'0 0.0
2014-Oct-23 19:33N 52°25' E 004°47'0 0.0
2014-Oct-23 18:33N 52°25' E 004°47'0 0.0
2014-Oct-23 17:30N 52°25' E 004°47'0 0.0
2014-Oct-23 16:33N 52°25' E 004°47'0 0.0
2014-Oct-23 15:33N 52°25' E 004°47'0 0.0
2014-Oct-23 14:33N 52°25' E 004°47'0 0.0
2014-Oct-23 13:33N 52°25' E 004°47'0 0.0
2014-Oct-23 12:33N 52°25' E 004°47'0 0.0
2014-Oct-23 11:33N 52°25' E 004°47'0 0.0
2014-Oct-23 10:33N 52°25' E 004°47'0 0.0
2014-Oct-23 09:33N 52°25' E 004°47'0 0.0
2014-Oct-23 08:30N 52°25' E 004°47'3 2.8
2014-Oct-23 07:34N 52°26' E 004°43'5 4.6
2014-Oct-23 06:34N 52°28' E 004°36'3 2.7
2014-Oct-23 05:34N 52°28' E 004°32'9 8.7
2014-Oct-23 04:33N 52°29' E 004°18'10 9.5
2014-Oct-23 03:33N 52°27' E 004°02'0 0.3
2014-Oct-23 02:26N 52°27' E 004°03'0 0.0
2014-Oct-23 01:32N 52°27' E 004°03'0 0.1
2014-Oct-23 00:32N 52°27' E 004°03'0 0.1
2014-Oct-22 23:32N 52°26' E 004°03'0 0.0
2014-Oct-22 22:32N 52°26' E 004°03'0 0.1
2014-Oct-22 21:32N 52°26' E 004°03'0 0.0
2014-Oct-22 20:32N 52°26' E 004°03'0 0.0
2014-Oct-22 19:32N 52°26' E 004°03'0 0.0
2014-Oct-22 18:32N 52°26' E 004°03'0 0.0
2014-Oct-22 17:32N 52°26' E 004°03'2 2.3
2014-Oct-22 16:33N 52°28' E 003°60'10 9.8
2014-Oct-22 15:33N 52°25' E 003°44'5 0.5
2014-Oct-22 05:20N 52°29' E 003°39'3 3.6
2014-Oct-22 04:22N 52°31' E 003°43'2 0.5
2014-Oct-21 23:11N 52°31' E 003°39'2 2.8
2014-Oct-21 22:33N 52°31' E 003°42'2 1.7
2014-Oct-21 21:33N 52°30' E 003°45'3 2.7
2014-Oct-21 20:33N 52°30' E 003°49'3 3.3
2014-Oct-21 19:33N 52°31' E 003°54'124124.2
2014-Oct-21 18:33N 52°31' E 000°30'133132.7
2014-Oct-21 17:33N 52°31' E 004°08'4 3.9
2014-Oct-21 16:33N 52°32' E 004°14'1 0.5
2014-Oct-21 15:29N 52°32' E 004°14'0 0.1
2014-Oct-21 14:32N 52°32' E 004°13'0 0.0
2014-Oct-21 13:32N 52°32' E 004°13'0 0.0
2014-Oct-21 12:32N 52°32' E 004°13'0 0.0
2014-Oct-21 11:32N 52°32' E 004°13'0 0.1
2014-Oct-21 10:29N 52°32' E 004°13'0 0.1
2014-Oct-21 09:32N 52°32' E 004°13'0 0.0
2014-Oct-21 08:32N 52°32' E 004°13'0 0.1
2014-Oct-21 07:29N 52°32' E 004°13'0 0.0
2014-Oct-21 06:32N 52°32' E 004°13'0 0.1
2014-Oct-21 05:32N 52°32' E 004°13'0 0.0
2014-Oct-21 04:32N 52°32' E 004°13'0 0.0
2014-Oct-21 03:32N 52°32' E 004°13'0 0.0
2014-Oct-21 02:29N 52°32' E 004°13'0 0.0
2014-Oct-21 01:32N 52°32' E 004°13'0 0.0
2014-Oct-21 00:26N 52°32' E 004°13'0 0.0
2014-Oct-20 23:32N 52°32' E 004°13'0 0.1
2014-Oct-20 22:32N 52°32' E 004°13'0 0.0
2014-Oct-20 21:32N 52°32' E 004°13'0 0.0
2014-Oct-20 20:32N 52°32' E 004°13'0 0.0
2014-Oct-20 19:26N 52°32' E 004°13'0 0.0
2014-Oct-20 18:29N 52°32' E 004°13'2 2.1
2014-Oct-20 17:33N 52°30' E 004°13'1111.0
2014-Oct-20 16:33N 52°27' E 003°56'1211.9
2014-Oct-20 15:33N 52°15' E 003°53'1212.3
2014-Oct-20 14:33N 52°03' E 003°55'9 9.0
2014-Oct-20 13:33N 51°58' E 004°08'2 2.3
2014-Oct-20 12:32N 51°56' E 004°11'0 0.0
2014-Oct-20 11:32N 51°56' E 004°11'0 0.0
2014-Oct-20 10:32N 51°56' E 004°11'0 0.0
2014-Oct-20 09:29N 51°56' E 004°11'0 0.0
2014-Oct-20 08:32N 51°56' E 004°11'0 0.0
2014-Oct-20 07:29N 51°56' E 004°11'0 0.0
2014-Oct-20 06:32N 51°56' E 004°11'0 0.0
2014-Oct-20 05:32N 51°56' E 004°11'0 0.0
2014-Oct-20 04:32N 51°56' E 004°11'0 0.0
2014-Oct-20 03:32N 51°56' E 004°11'0 0.0
2014-Oct-20 02:32N 51°56' E 004°11'0 0.0
2014-Oct-20 01:32N 51°56' E 004°11'0 0.0
2014-Oct-20 00:32N 51°56' E 004°11'0 0.0
2014-Oct-19 23:32N 51°56' E 004°11'0 0.0
2014-Oct-19 22:32N 51°56' E 004°11'0 0.0
2014-Oct-19 21:29N 51°56' E 004°11'0 0.0
2014-Oct-19 20:32N 51°56' E 004°11'0 0.0
2014-Oct-19 19:32N 51°56' E 004°11'0 0.0
2014-Oct-19 18:32N 51°56' E 004°11'0 0.0
2014-Oct-19 17:32N 51°56' E 004°11'0 0.0
2014-Oct-19 16:32N 51°56' E 004°11'0 0.0
2014-Oct-19 15:32N 51°56' E 004°11'0 0.0
2014-Oct-19 14:32N 51°56' E 004°11'0 0.0
2014-Oct-19 13:32N 51°56' E 004°11'0 0.0
2014-Oct-19 12:32N 51°56' E 004°11'0 0.0
2014-Oct-19 11:32N 51°56' E 004°11'0 0.0
2014-Oct-19 10:32N 51°56' E 004°11'0 0.0
2014-Oct-19 09:32N 51°56' E 004°11'0 0.0
2014-Oct-19 08:32N 51°56' E 004°11'0 0.0
2014-Oct-19 07:32N 51°56' E 004°11'0 0.0
2014-Oct-19 06:32N 51°56' E 004°11'0 0.0
2014-Oct-19 05:29N 51°56' E 004°11'0 0.0
2014-Oct-19 04:32N 51°56' E 004°11'1 0.7
2014-Oct-19 03:33N 51°57' E 004°10'7 7.4
2014-Oct-19 02:33N 52°01' E 003°60'9 9.5
2014-Oct-19 01:33N 51°56' E 004°13'6 6.1
2014-Oct-19 00:33N 51°54' E 004°22'0 0.0
2014-Oct-18 23:29N 51°54' E 004°22'0 0.0
2014-Oct-18 22:32N 51°54' E 004°22'0 0.0
2014-Oct-18 21:29N 51°54' E 004°22'0 0.0
2014-Oct-18 20:32N 51°54' E 004°22'0 0.0
2014-Oct-18 19:23N 51°54' E 004°22'0 0.0
2014-Oct-18 17:32N 51°54' E 004°22'0 0.0
2014-Oct-18 16:32N 51°54' E 004°22'0 0.0
2014-Oct-18 15:32N 51°54' E 004°22'0 0.0
2014-Oct-18 14:32N 51°54' E 004°22'0 0.0
2014-Oct-18 13:32N 51°54' E 004°22'0 0.0
2014-Oct-18 12:32N 51°54' E 004°22'0 0.0
2014-Oct-18 11:32N 51°54' E 004°22'0 0.0
2014-Oct-18 10:32N 51°54' E 004°22'0 0.0
2014-Oct-18 09:29N 51°54' E 004°22'0 0.0
2014-Oct-18 08:29N 51°54' E 004°22'0 0.0
2014-Oct-18 07:32N 51°54' E 004°22'0 0.0
2014-Oct-18 06:32N 51°54' E 004°22'0 0.0
2014-Oct-18 05:17N 51°54' E 004°22'0 0.0
2014-Oct-18 04:29N 51°54' E 004°22'0 0.0
2014-Oct-18 03:32N 51°54' E 004°22'0 0.0
2014-Oct-18 02:29N 51°54' E 004°22'0 0.0
2014-Oct-18 01:32N 51°54' E 004°22'0 0.0
2014-Oct-18 00:32N 51°54' E 004°22'0 0.0
2014-Oct-17 23:32N 51°54' E 004°22'  

Dump ship's entire track history